Location: Newark
(25.0000°N, 73.5000°E)
Time: 23:26:36
(UTC+00:00)

Transit 4A - Visible Passes

Search period start: 30 July 2021 00:00
Search period end: 09 August 2021 00:00
Orbit: 872 x 972 km, 66.8° (Epoch: 30 July)

Date Brightness Start Highest point End Pass type
(mag) Time Alt. Az. Time Alt. Az. Time Alt. Az.
30 Jul 10.5 19:02:39 12° NNE 19:02:39 12° NNE 19:03:01 10° NNE visible
31 Jul 10.5 19:11:27 12° N 19:11:27 12° N 19:11:58 10° N visible
01 Aug 10.6 19:20:13 11° N 19:20:13 11° N 19:20:34 10° N visible
04 Aug 10.5 18:02:41 12° N 18:02:41 12° N 18:03:07 10° N visible
05 Aug 10.4 18:11:10 13° N 18:11:10 13° N 18:11:57 10° N visible
06 Aug 10.5 18:19:33 13° NNW 18:19:33 13° NNW 18:20:24 10° NNW visible
07 Aug 10.1 16:44:20 13° NNE 16:44:20 13° NNE 16:44:55 10° NNE visible
07 Aug 10.6 18:27:47 10° NW 18:27:47 10° NW 18:27:55 10° NW visible
08 Aug 9.7 16:52:21 21° NNE 16:52:21 21° NNE 16:54:10 10° NNE visible
